Location: Axtheid
(49.6213°N, 11.8205°E)
Time: 23:13:47
(UTC+00:00)

Envisat - Pass Details

Date: 23 January 2022
Orbit: 764 x 765 km, 98.2° (Epoch: 21 May)

Event Time Altitude Azimuth Distance (km) Brightness Sun altitude
Rises 04:26:58 0° 13° (NNE) 3,243 6.4 -23.9°
Reaches altitude 10° 04:29:17 10° 12° (NNE) 2,312 5.6 -23.5°
Maximum altitude 04:34:23 78° 287° (WNW) 787 2.8 -22.7°
Drops below altitude 10° 04:39:26 10° 201° (SSW) 2,297 5.3 -21.9°
Sets 04:41:44 0° 201° (SSW) 3,219 6.1 -21.5°
